Tekamah, NE

12:41 PM CDT on May 27, 2018 (GMT -0500)
Tekamah

Weather History for KTQE - September, 2012

Change the Weather History Date:

Saturday, September 15, 2012

  Actual Average Record
Temperature  
Mean Temperature 62 °F -  
Max Temperature 81 °F 74 °F 99 °F (1955)
Min Temperature 45 °F 51 °F 33 °F (2007)
Degree Days  
Heating Degree Days 2    
Growing Degree Days 12 (Base 50)    
Moisture  
Dew Point 46 °F    
Average Humidity 60    
Maximum Humidity 90    
Minimum Humidity 26    
Precipitation  
Precipitation 0.00 in - - ()
Sea Level Pressure  
Sea Level Pressure 30.16 in    
Wind  
Wind Speed 8 mph (South)    
Max Wind Speed 18 mph    
Max Gust Speed 23 mph    
Visibility 10 miles    
Events      
Averages and records for this station are not official NWS values.
T = Trace of Precipitation, MM = Missing Value Source: NWS Daily Summary

Daily Weather History Graph

Daily Weather History Graph

Search for Another Location

Airport or City:

Astronomy

Sep. 15, 2012 Rise Set
Actual Time 7:05 AM CDT 7:33 PM CDT
Civil Twilight 6:37 AM CDT 8:01 PM CDT
Nautical Twilight 6:04 AM CDT 8:33 PM CDT
Astronomical Twilight 5:30 AM CDT 9:07 PM CDT
Moon 6:38 AM CDT (9/15) 7:03 PM CDT (9/15)
Length of Visible Light 13h 23m
Length of Day
12h 27m
Waning Crescent, 0% of the Moon is Illuminated
Sep 15
Waning Crescent
Sep 15
New
Sep 22
First Quarter
Sep 29
Full
Oct 8
Last Quarter

Hourly Weather History & Observations

Time (CDT) Temp. Windchill Dew Point Humidity Pressure Visibility Wind Dir Wind Speed Gust Speed Precip Events Conditions
12:54 AM 57.0 °F - 46.0 °F 67% 30.25 in 10.0 mi South 5.8 mph - N/A   Clear
1:54 AM 54.0 °F - 45.0 °F 72% 30.25 in 10.0 mi South 5.8 mph - N/A   Clear
2:54 AM 51.1 °F - 44.1 °F 77% 30.24 in 10.0 mi South 6.9 mph - N/A   Clear
3:54 AM 46.9 °F - 43.0 °F 86% 30.23 in 10.0 mi SSE 3.5 mph - N/A   Clear
4:54 AM 46.9 °F - 43.0 °F 86% 30.23 in 10.0 mi SE 5.8 mph - N/A   Clear
5:54 AM 46.9 °F - 43.0 °F 86% 30.23 in 10.0 mi SSE 6.9 mph - N/A   Clear
6:54 AM 45.0 °F 41.8 °F 42.1 °F 90% 30.25 in 10.0 mi SSE 5.8 mph - N/A   Clear
7:54 AM 48.0 °F - 44.1 °F 86% 30.25 in 9.0 mi SSE 4.6 mph - N/A   Clear
8:54 AM 57.0 °F - 46.0 °F 67% 30.25 in 10.0 mi South 5.8 mph - N/A   Clear
9:54 AM 66.0 °F - 46.9 °F 50% 30.24 in 10.0 mi South 11.5 mph - N/A   Clear
10:54 AM 71.1 °F - 44.1 °F 38% 30.22 in 10.0 mi South 13.8 mph 19.6 mph N/A   Clear
11:54 AM 73.0 °F - 41.0 °F 31% 30.19 in 10.0 mi South 9.2 mph - N/A   Clear
12:54 PM 77.0 °F - 39.9 °F 26% 30.17 in 10.0 mi SSE 9.2 mph - N/A   Clear
1:54 PM 79.0 °F - 43.0 °F 28% 30.14 in 10.0 mi South 13.8 mph 21.9 mph N/A   Clear
2:54 PM 80.1 °F - 44.1 °F 28% 30.12 in 10.0 mi SSE 18.4 mph 23.0 mph N/A   Clear
3:54 PM 80.1 °F - 44.1 °F 28% 30.11 in 10.0 mi South 13.8 mph 21.9 mph N/A   Clear
4:54 PM 80.1 °F - 45.0 °F 29% 30.08 in 10.0 mi South 15.0 mph - N/A   Clear
5:54 PM 79.0 °F - 48.0 °F 34% 30.07 in 10.0 mi South 15.0 mph 19.6 mph N/A   Clear
6:54 PM 77.0 °F - 51.1 °F 40% 30.07 in 10.0 mi South 8.1 mph - N/A   Clear
7:54 PM 66.0 °F - 52.0 °F 60% 30.06 in 10.0 mi SSE 6.9 mph - N/A   Clear
8:54 PM 60.1 °F - 52.0 °F 75% 30.07 in 10.0 mi South 8.1 mph - N/A   Clear
9:54 PM 59.0 °F - 53.1 °F 81% 30.06 in 10.0 mi South 5.8 mph - N/A   Clear
10:54 PM 57.9 °F - 53.1 °F 84% 30.06 in 8.0 mi South 6.9 mph - N/A   Clear
11:54 PM 60.1 °F - 55.0 °F 83% 30.05 in 7.0 mi South 5.8 mph - N/A   Clear